Theta_e
309 312 316 315 315 317 318 320 321 321 318 318 319 320 321 321 322 322 322 322 322 322 324 324 325 325 325 324 323 323 323 323 323 322 321 317 321 325 324 325 327 328 327 328
310 313 314 316 315 314 315 318 319 319 317 318 319 320 322 322 322 321 322 323 324 325 324 325 325 324 324 323 323 323 323 323 322 322 319 319 323 324 324 327 326 326 327 327
313 314 312 313 315 315 315 316 316 317 318 319 320 321 320 321 322 322 321 322 323 323 324 325 325 324 321 321 322 323 322 322 322 320 318 321 324 324 325 324 325 326 326 326
311 313 313 313 314 316 317 316 316 316 317 319 320 323 322 322 322 322 322 324 325 324 323 323 324 323 322 321 322 322 322 323 320 318 320 323 324 325 325 323 324 325 325 323
311 311 312 313 314 316 317 317 317 318 319 320 320 322 321 322 322 323 323 324 325 322 321 322 323 323 322 321 322 323 323 321 320 320 322 324 326 326 324 323 324 325 326 323
312 311 312 314 314 316 317 318 319 320 320 322 320 321 321 322 322 322 325 325 323 323 322 322 323 323 321 323 323 323 322 321 321 321 323 327 327 327 325 323 323 325 325 323
311 311 312 312 314 316 319 320 320 320 320 322 321 321 322 323 322 322 324 326 323 323 323 323 323 322 323 323 323 323 322 322 321 322 325 327 328 327 326 325 324 325 325 324
314 312 312 313 314 317 319 320 319 321 322 321 321 320 321 323 322 321 323 324 323 325 324 324 324 324 323 324 323 323 323 323 321 323 327 327 328 328 326 324 323 324 324 323
316 315 313 313 315 319 320 320 319 321 322 323 324 324 324 324 325 325 324 323 325 326 325 324 324 323 324 324 324 323 324 320 322 327 327 327 328 328 325 323 323 324 324 322
314 316 315 313 314 315 318 319 319 319 320 320 322 324 326 326 326 327 327 326 325 326 325 324 324 324 324 324 324 324 321 322 324 326 326 327 327 328 325 324 323 322 323 322
313 315 316 313 315 315 315 319 318 319 318 319 319 320 327 328 327 329 329 326 326 326 326 325 325 324 324 325 324 324 320 323 325 326 327 327 328 329 326 325 325 322 322 321
311 315 317 315 314 316 316 318 318 317 319 319 320 320 324 326 326 326 327 324 325 326 326 325 325 324 325 325 324 322 322 324 325 326 327 327 327 328 326 325 324 323 322 320
312 316 317 317 316 315 316 316 318 319 320 319 318 320 323 326 325 323 326 324 325 326 325 325 325 324 325 324 323 321 322 324 324 325 327 327 328 327 326 325 325 324 323 322
309 311 315 317 317 317 316 316 316 318 318 318 319 319 322 323 328 326 325 325 325 326 326 325 325 325 326 324 323 321 322 324 324 324 326 328 327 328 326 325 325 324 324 324
310 312 311 312 312 314 316 315 316 317 317 318 319 319 320 322 324 325 325 325 326 326 326 326 325 326 326 324 322 321 322 324 323 324 327 328 327 326 325 324 324 324 324 324
310 312 311 313 314 316 317 317 316 316 316 316 317 319 320 320 321 325 325 325 326 327 327 326 326 326 326 324 322 321 321 323 323 324 326 327 326 326 324 324 323 324 324 323
311 311 312 315 314 316 317 318 318 316 316 316 317 319 319 320 324 326 327 326 327 327 327 326 326 326 326 324 322 321 320 323 322 323 325 327 327 326 325 327 326 324 323 324
310 311 311 315 317 318 319 319 318 318 318 318 317 318 321 322 322 320 324 327 327 328 327 326 326 326 326 324 323 321 320 322 322 322 325 327 327 327 326 327 328 328 326 324
309 311 315 316 320 319 322 317 318 321 319 317 318 319 320 320 324 323 325 326 327 326 327 327 326 326 325 323 323 321 321 322 321 321 323 326 328 326 325 325 324 324 328 326
310 310 313 315 321 321 318 315 314 318 323 315 315 317 317 318 322 324 321 324 326 328 327 327 327 326 325 323 322 321 321 322 321 322 322 326 328 327 326 327 325 323 327 328
315 315 315 316 317 321 316 313 314 325 319 314 314 314 315 318 323 318 318 321 326 326 327 327 327 326 324 323 322 321 321 320 319 321 320 322 328 327 325 326 325 323 324 326
315 316 316 314 317 324 314 313 317 313 312 312 313 314 314 315 316 317 320 322 324 326 326 327 327 326 324 323 322 320 320 319 320 320 320 320 325 327 324 324 325 323 321 322
314 312 315 314 317 313 312 312 311 311 311 312 312 313 314 316 317 319 320 322 324 326 326 326 327 325 325 323 322 320 318 320 320 320 320 318 319 328 326 324 324 324 323 320
310 309 313 313 312 311 311 310 310 310 311 311 311 312 314 316 318 320 323 325 324 325 326 327 326 325 325 324 322 320 319 319 320 321 321 319 318 322 327 327 327 325 325 323
310 310 310 312 310 310 310 310 309 310 310 310 311 312 314 317 319 321 326 327 324 325 325 327 327 325 324 324 324 323 320 319 320 321 322 320 318 319 321 327 328 327 326 324
309 310 311 311 308 308 309 309 309 310 310 310 310 312 314 316 319 323 326 328 326 325 325 327 327 326 325 324 325 325 324 320 319 320 321 321 319 318 320 321 323 325 326 325
Wind_Speed
25 13 27 31 26 18 18 20 26 19 14 14 19 18 12 21 23 26 28 31 33 35 32 29 23 16 15 17 21 27 32 30 28 24 21 17 14 11 12 14 16 16 13 12
11 29 30 21 22 23 24 23 21 16 12 12 15 21 15 16 24 29 26 29 30 27 27 19 15 13 12 15 21 26 30 29 25 20 15 13 11 11 11 13 14 11 9 10
26 38 18 20 23 25 27 28 23 19 12 13 13 23 18 22 16 22 26 28 30 26 20 11 12 12 14 17 21 27 29 24 20 16 13 10 9 8 9 9 9 7 8 9
22 25 24 22 30 23 26 24 22 20 13 16 3 16 15 21 22 21 26 22 24 17 17 12 11 9 12 16 22 28 25 21 17 14 10 9 7 6 6 7 6 7 6 5
18 18 23 26 26 26 18 14 17 19 18 18 17 11 13 10 20 23 21 23 15 9 10 10 9 8 12 21 29 25 22 18 14 12 10 7 3 4 5 6 6 7 5 3
18 14 26 29 20 22 11 13 14 8 10 13 15 11 12 16 19 14 13 11 5 8 6 8 10 13 21 28 28 24 20 16 13 11 9 5 2 3 5 6 7 6 5 4
16 17 6 15 19 20 20 14 7 7 7 10 15 13 19 17 18 19 18 8 5 4 8 15 20 25 31 32 27 22 19 16 12 10 9 3 1 3 5 6 7 4 3 6
14 11 21 18 21 17 27 21 9 9 6 7 6 10 8 18 20 29 21 14 7 9 13 16 21 28 32 30 25 22 19 14 11 11 8 4 1 3 5 7 4 2 6 8
12 17 14 20 19 22 25 20 14 2 2 4 5 7 10 16 12 8 11 6 10 13 15 20 25 30 31 27 24 20 18 13 12 11 7 4 1 3 5 5 4 5 8 11
7 10 12 23 23 24 17 20 10 9 10 8 5 5 8 3 15 10 9 10 13 15 17 20 27 30 28 24 22 20 14 12 13 10 7 5 1 3 4 4 5 6 8 11
6 6 13 23 21 23 11 21 7 9 5 6 3 5 8 11 5 4 3 12 18 19 19 22 25 28 26 23 22 20 15 13 13 9 9 4 2 2 2 2 4 5 8 9
4 5 6 24 10 19 20 22 20 10 9 8 2 4 2 8 5 6 2 12 14 17 20 22 24 29 27 24 23 19 16 14 12 10 8 5 2 1 1 1 3 6 8 9
8 4 7 10 6 16 26 21 17 6 5 15 9 3 4 3 3 1 7 15 16 19 22 23 25 29 26 25 23 19 16 14 12 10 7 5 2 1 1 4 5 8 9 9
8 3 7 8 7 1 24 23 21 14 9 10 17 12 17 8 1 5 6 10 17 20 24 25 26 27 25 25 23 19 17 15 12 9 8 5 2 2 3 7 8 8 10 11
4 2 5 13 11 9 5 23 23 21 16 12 9 23 20 16 5 2 7 15 17 21 25 26 29 28 27 26 23 19 18 16 13 10 9 6 5 4 8 10 11 12 13 12
2 2 9 9 10 8 8 7 11 26 23 18 13 14 12 14 9 4 9 19 21 23 23 25 29 29 29 27 25 21 20 18 15 12 10 8 7 9 12 12 11 12 12 13
1 4 3 7 3 5 11 14 9 9 21 20 21 27 11 14 13 9 11 22 26 25 27 31 33 33 30 29 26 23 22 19 16 14 12 11 9 11 14 13 11 11 11 11
3 1 2 2 0 10 2 11 11 15 3 7 17 10 7 14 25 25 16 23 27 25 26 29 33 34 31 28 26 23 22 21 18 16 14 15 12 12 14 12 10 9 10 10
9 2 2 3 5 3 5 9 5 2 4 10 8 10 12 15 18 22 15 23 32 35 31 32 33 33 31 30 28 26 24 23 20 18 17 19 16 14 15 13 11 9 10 9
7 9 5 3 5 7 5 12 4 1 6 11 11 10 12 15 9 11 13 6 17 23 29 31 32 33 31 30 30 28 26 26 24 21 19 21 18 17 15 12 10 9 10 11
1 3 7 6 2 3 12 12 6 9 3 15 14 14 13 8 12 26 25 17 9 18 24 30 33 36 34 33 32 31 28 28 26 22 20 20 19 17 15 14 11 9 12 12
1 2 3 3 4 4 18 4 3 6 10 13 15 15 18 20 25 26 23 21 12 18 27 32 34 37 36 34 33 33 32 27 26 24 22 20 21 20 18 15 14 11 11 13
1 2 1 2 3 8 11 3 8 8 12 15 17 19 18 21 22 22 21 19 13 18 26 32 36 38 38 36 34 34 31 29 28 27 24 22 21 21 19 18 16 15 12 13
1 1 1 3 3 11 8 8 13 15 16 18 19 19 18 21 22 22 20 16 16 18 27 33 33 40 42 39 33 30 31 31 30 29 26 25 22 23 22 19 16 16 15 14
2 2 4 3 6 9 4 15 20 22 21 23 23 21 19 21 22 20 20 16 14 19 25 34 40 44 44 42 36 34 31 33 33 31 28 27 26 23 23 22 20 18 17 14
5 4 3 2 7 8 16 19 24 22 25 26 27 28 25 23 25 22 20 16 15 21 25 34 40 39 44 43 40 36 34 34 35 34 31 30 29 26 24 24 22 21 19 15
Wind_Direction
188 196 220 211 215 235 252 252 246 243 224 245 255 272 276 293 293 286 288 285 281 283 297 298 294 279 257 246 234 216 207 200 198 205 219 227 235 250 274 284 288 290 278 265
176 221 219 222 218 224 231 244 243 250 247 253 281 277 288 282 280 281 281 288 280 287 293 293 283 272 248 233 215 202 197 194 194 211 218 223 234 255 277 288 292 291 275 266
198 224 202 201 211 214 224 230 237 244 264 263 278 279 275 278 280 282 279 281 281 277 289 293 280 256 233 212 200 190 180 182 196 204 207 216 235 265 294 295 303 293 284 280
227 224 195 204 218 206 231 221 242 246 254 260 246 284 274 283 284 277 281 278 272 270 275 274 272 248 218 198 179 170 173 184 189 195 197 207 237 271 296 306 307 302 300 305
219 199 200 206 208 202 236 221 229 236 240 264 257 269 281 276 275 275 274 269 274 294 257 250 233 212 185 173 166 168 177 179 182 186 187 203 264 282 303 319 315 302 301 273
224 203 195 208 198 199 184 216 210 222 237 247 252 243 277 265 257 275 267 255 303 309 240 199 170 159 157 161 166 172 173 173 177 184 187 183 297 299 319 320 313 303 276 216
220 225 209 194 194 191 189 179 176 210 218 255 249 235 244 262 249 255 262 285 298 286 168 158 157 156 157 163 170 171 171 171 176 182 175 175 320 337 331 324 324 296 235 169
209 193 205 190 194 187 188 185 189 194 197 225 165 212 248 242 255 245 251 275 241 180 163 156 158 159 161 167 172 171 169 170 174 170 162 163 39 359 347 340 326 175 160 152
212 224 189 184 180 166 191 203 192 213 37 254 167 253 283 248 257 237 237 219 186 168 164 160 163 165 167 171 173 171 166 170 169 163 163 160 91 15 12 18 66 122 151 153
279 232 205 183 185 202 188 174 190 212 213 233 193 261 249 240 226 213 202 195 168 165 159 163 167 171 172 171 171 167 166 168 163 159 162 162 140 24 21 44 79 106 146 156
282 270 174 171 201 186 178 187 188 192 220 209 243 239 209 238 218 196 183 167 169 158 163 167 172 173 172 172 170 167 167 166 166 162 165 170 173 13 21 41 83 125 142 158
320 302 230 198 189 193 197 188 183 188 192 211 247 250 21 256 271 251 191 140 154 162 162 168 174 172 176 173 171 171 169 167 168 167 170 184 199 354 26 91 137 142 152 163
343 237 224 148 163 201 200 194 190 178 156 199 202 233 175 260 264 150 161 145 161 167 162 170 174 175 179 176 174 174 171 172 172 176 179 187 181 134 68 150 132 133 146 150
332 255 282 204 171 128 199 195 196 194 198 191 216 218 263 278 354 91 109 155 167 172 167 172 174 179 182 177 176 175 175 176 177 179 174 182 138 121 115 148 134 130 138 137
20 270 313 284 277 280 171 198 200 202 207 213 204 224 237 267 295 50 185 166 177 174 173 177 177 182 182 178 178 176 177 178 176 175 168 163 133 117 132 134 130 132 130 130
360 343 337 255 236 248 250 200 214 212 223 233 247 251 237 274 290 235 186 175 188 185 177 178 182 185 183 181 180 177 178 179 178 176 169 156 129 124 134 128 130 132 129 131
243 344 335 222 338 286 250 223 201 202 227 226 228 240 256 280 273 250 197 189 198 186 180 183 186 187 186 185 182 180 179 179 181 180 172 161 144 133 132 128 129 130 131 134
228 264 267 254 246 226 192 40 230 217 160 257 241 255 318 294 295 288 261 210 200 193 183 186 188 189 188 186 183 181 181 180 184 183 175 164 150 138 140 132 123 126 139 142
225 213 251 216 202 82 49 23 347 324 118 16 334 322 319 317 308 280 251 225 212 198 199 193 190 189 186 187 183 183 182 183 187 189 181 174 163 146 141 133 123 121 136 146
205 220 263 189 217 201 20 338 324 160 170 4 349 335 330 331 244 251 15 342 242 219 197 190 188 189 187 186 184 186 186 187 189 192 187 180 177 173 161 147 136 126 136 143
149 129 201 228 270 116 353 333 176 188 38 339 337 327 317 294 280 301 310 312 279 216 204 190 188 189 186 185 185 188 190 191 187 190 194 190 185 178 174 166 153 136 142 145
127 185 168 212 224 168 358 9 82 352 333 337 333 327 314 301 297 297 297 291 291 209 201 194 189 189 187 188 188 190 195 189 188 189 194 194 189 184 179 174 169 156 153 148
127 16 32 289 32 341 344 23 41 357 333 338 337 330 321 311 306 302 295 284 264 213 204 200 188 188 190 191 193 194 193 189 188 189 195 196 194 192 188 183 180 176 167 168
14 344 290 316 40 326 328 42 15 359 345 340 340 337 331 317 315 306 296 282 250 213 201 202 193 188 190 192 195 198 191 188 189 189 196 198 198 196 196 195 194 197 188 180
12 297 340 297 330 333 228 356 347 345 349 344 340 343 343 331 321 310 298 282 245 216 202 202 199 194 193 190 194 198 194 190 191 192 198 201 201 199 200 203 205 204 203 198
356 3 5 336 320 293 298 318 328 334 337 338 338 340 346 346 331 320 301 283 247 212 205 205 204 202 197 195 196 200 196 195 194 193 197 201 204 203 203 206 205 209 207 204